Skip Page Navigation
NASA JPL Caltech
NASA Logo - Jet Propulsion Laboratory + View the NASA Portal
+ Center for Near-Earth Object Studies
JPL Home Earth Solar System Stars & Galaxies Technology
JPL Solar System Dynamics
BODIES ORBITS EPHEMERIDES TOOLS PHYSICAL DATA DISCOVERY FAQ SITE MAP
JPL Small-Body Database Browser
Search: [ help ]  
150823 (2001 SZ2)
Classification: Main-belt Asteroid          SPK-ID: 2150823
Ephemeris | Orbit Diagram | Orbital Elements | Mission Design | Physical Parameters | Discovery Circumstances | Close-Approach Data ]

[ show orbit diagram ]
Orbital Elements at Epoch 2459200.5 (2020-Dec-17.0) TDB
Reference: JPL 20 (heliocentric ecliptic J2000)
 Element Value Uncertainty (1-sigma)   Units 
e .1903089095151739 3.8737e-08  
a 2.640306782310179 1.2955e-08 au
q 2.137832877783211 1.0011e-07 au
i 9.816858804442013 6.5957e-06 deg
node 180.0663073703548 2.2219e-05 deg
peri 261.8361666269518 2.9704e-05 deg
M 126.3263941691115 1.743e-05 deg
tp 2458650.615329182399
(2019-Jun-16.11532918)
7.5343e-05 TDB
period 1567.03975282736
4.29
1.1534e-05
3.158e-08
d
yr
n .2297325255153632 1.6909e-09 deg/d
Q 3.142780686837147 1.5421e-08 au
  Orbit Determination Parameters
   # obs. used (total)      558  
   data-arc span      7094 days (19.42 yr)  
   first obs. used      2001-09-16  
   last obs. used      2021-02-17  
   planetary ephem.      DE441  
   SB-pert. ephem.      SB441-N16  
   condition code      0  
   norm. resid. RMS      .6144  
   source      ORB  
   producer      Otto Matic  
   solution date      2021-Apr-13 19:20:11  

Additional Information
 Earth MOID = 1.17895 au 
 Jupiter MOID = 2.20142 au 
 T_jup = 3.349 
[ show covariance matrix ]

Ephemeris | Orbit Diagram | Orbital Elements | Mission Design | Physical Parameters | Discovery Circumstances | Close-Approach Data ]

Physical Parameter Table
Parameter Symbol Value Units Sigma Reference Notes
absolute magnitude H 16.07   n/a E2021B55  

150823 (2001 SZ2)          Discovered 2001-Sep-17 by Yeung, W. K. Y. at Desert Eagle
Reference: 20070303/Numbers.arcLast Updated: 2007-03-07

[ hide close-approach data ]
Close-Approach Data   ...sorted by Date/Time (TDB)
Date/Time (TDB) Time Uncertainty
(days_HH:MM)
Body Nominal Distance (au) Minimum Distance (au) Maximum Distance (au) V-relative (km/s) V-infinity (km/s) JD (TDB) Time Uncertainty (minutes) Semi-major axis (km) Semi-minor axis (km) range-LOV angle (deg) N-sigma BP Orbit Ref. Reference Modified
2035-Nov-28 04:21 00:01 Amphi 0.042611471162823 0.0426015672640081 0.0426213786929231 5.9087746406736 5.90877461784133 2464659.680920570 1.19938025716371 795.534589246014 52.474469497944 51.7851101335661 95550.6015821802 T 20 CATAB v2.0f-lin.ifort 2021-Apr-13 19:20:13 2021-Apr-13 19:20
2088-Sep-16 20:29 00:11 Iris 0.0286562397454294 0.0286225563680559 0.0286899402195403 3.89810573646034 3.89810568499674 2483946.353170415 11.0840787461097 2009.19509926017 41.9376607002183 -33.3189726887541 56144.1062938504 T 20 CATAB v2.0f-lin.ifort 2021-Apr-13 19:20:13 2021-Apr-13 19:20
Ephemeris | Orbit Diagram | Orbital Elements | Mission Design | Physical Parameters | Discovery Circumstances | Close-Approach Data ]
ABOUT SSD CREDITS/AWARDS PRIVACY/COPYRIGHT GLOSSARY LINKS
FirstGov 2021-May-15 06:18 UT
(server date/time)  
NASA Home Page
Site Manager:   Ryan S. Park
Webmaster  Alan B. Chamberlin